JTC319 LFKJ-GCLP

Flight info

Callsign JTC319
Flight time 4h 5m
Altitude 37000
Route NEGAT UN851 NESUL DCT LUNOR UN851 ISTER N851 MHN M603 ALT/N0452F280 Y810 AMR/N0455F370 N860 BERUM UG850 ADM UN869 RUSIK
Aircraft A319/M-SDE3FGHIRWY/LB1

Departure

Time 2026-05-06 20:38
Airport Ajaccio Napoléon Bonaparte airport (LFKJ)

Arrival

Time 2026-05-07 00:43
Airport Gran Canaria Airport (GCLP)
Time Latitude Longitude Altitude Speed Heading
2026-05-06 20:26 41.91762 8.79439 76 ft 0 kts 344°
2026-05-06 20:32 41.91763 8.79439 21 ft 0 kts 345°
2026-05-06 20:33 41.91759 8.79457 22 ft 4 kts 118°
2026-05-06 20:33 41.91750 8.79486 21 ft 2 kts 100°
2026-05-06 20:33 41.91759 8.79517 21 ft 5 kts 52°
2026-05-06 20:33 41.91795 8.79542 21 ft 5 kts 23°
2026-05-06 20:34 41.91825 8.79560 21 ft 4 kts 24°
2026-05-06 20:34 41.91868 8.79586 21 ft 13 kts 25°
2026-05-06 20:34 41.91990 8.79662 21 ft 21 kts 25°
2026-05-06 20:34 41.92128 8.79748 23 ft 23 kts 25°
2026-05-06 20:35 41.92275 8.79841 21 ft 24 kts 25°
2026-05-06 20:35 41.92431 8.79937 21 ft 25 kts 25°
2026-05-06 20:35 41.92593 8.80038 21 ft 26 kts 25°
2026-05-06 20:35 41.92746 8.80138 21 ft 24 kts 31°
2026-05-06 20:36 41.92868 8.80278 21 ft 23 kts 46°
2026-05-06 20:36 41.92967 8.80444 22 ft 21 kts 80°
2026-05-06 20:36 41.92953 8.80564 26 ft 10 kts 74°
2026-05-06 20:36 41.93011 8.80629 27 ft 12 kts 23°
2026-05-06 20:37 41.93093 8.80658 26 ft 13 kts 354°
2026-05-06 20:37 41.93127 8.80702 25 ft 8 kts 177°
2026-05-06 20:37 41.93026 8.80640 30 ft 40 kts 204°
2026-05-06 20:37 41.92517 8.80321 22 ft 115 kts 205°
2026-05-06 20:38 41.91664 8.79781 303 ft 142 kts 207°
2026-05-06 20:38 41.90833 8.79103 956 ft 143 kts 231°
2026-05-06 20:38 41.90323 8.77926 1482 ft 154 kts 239°
2026-05-06 20:38 41.89767 8.76614 1983 ft 170 kts 239°
2026-05-06 20:39 41.89125 8.75175 2436 ft 190 kts 239°
2026-05-06 20:39 41.88410 8.73570 2859 ft 212 kts 239°
2026-05-06 20:39 41.87597 8.71776 3325 ft 238 kts 238°
2026-05-06 20:39 41.86691 8.69803 3980 ft 256 kts 239°
2026-05-06 20:40 41.85747 8.67747 4956 ft 261 kts 238°
2026-05-06 20:40 41.84789 8.65660 6012 ft 263 kts 239°
2026-05-06 20:40 41.83827 8.63562 7046 ft 264 kts 239°
2026-05-06 20:40 41.82863 8.61460 8094 ft 265 kts 239°
2026-05-06 20:41 41.81890 8.59363 9149 ft 265 kts 237°
2026-05-06 20:41 41.80838 8.57328 10168 ft 266 kts 234°
2026-05-06 20:41 41.79696 8.55253 10623 ft 288 kts 234°
2026-05-06 20:41 41.78437 8.53021 10968 ft 311 kts 233°
2026-05-06 20:42 41.77112 8.50674 11638 ft 320 kts 233°
2026-05-06 20:42 41.75786 8.48311 12435 ft 324 kts 233°
2026-05-06 20:42 41.74428 8.45874 13257 ft 328 kts 233°
2026-05-06 20:42 41.73060 8.43405 14030 ft 332 kts 234°
2026-05-06 20:43 41.71678 8.40905 14771 ft 335 kts 234°
2026-05-06 20:43 41.70286 8.38386 15519 ft 338 kts 234°
2026-05-06 20:43 41.68884 8.35849 16264 ft 340 kts 233°
2026-05-06 20:43 41.67468 8.33294 16989 ft 344 kts 234°
2026-05-06 20:44 41.66035 8.30717 17724 ft 347 kts 234°
2026-05-06 20:44 41.64592 8.28122 18431 ft 349 kts 234°
2026-05-06 20:44 41.63137 8.25506 19069 ft 352 kts 233°
2026-05-06 20:44 41.61671 8.22873 19716 ft 354 kts 233°
2026-05-06 20:45 41.60197 8.20227 20366 ft 356 kts 233°
2026-05-06 20:45 41.58710 8.17566 21013 ft 359 kts 233°
2026-05-06 20:45 41.57211 8.14886 21648 ft 361 kts 233°
2026-05-06 20:45 41.55707 8.12194 22264 ft 363 kts 233°
2026-05-06 20:46 41.54192 8.09482 22861 ft 366 kts 233°
2026-05-06 20:46 41.52665 8.06752 23446 ft 368 kts 233°
2026-05-06 20:46 41.51127 8.04012 23933 ft 370 kts 233°
2026-05-06 20:46 41.49575 8.01252 24382 ft 373 kts 233°
2026-05-06 20:47 41.48018 7.98478 24838 ft 375 kts 233°
2026-05-06 20:47 41.46449 7.95682 25300 ft 377 kts 233°
2026-05-06 20:47 41.44873 7.92875 25767 ft 379 kts 233°
2026-05-06 20:47 41.43288 7.90053 26219 ft 381 kts 233°
2026-05-06 20:48 41.41697 7.87214 26656 ft 384 kts 234°
2026-05-06 20:48 41.40316 7.84163 27084 ft 387 kts 241°
2026-05-06 20:48 41.39071 7.81031 27510 ft 389 kts 241°
2026-05-06 20:48 41.37800 7.77844 27935 ft 391 kts 241°
2026-05-06 20:49 41.36520 7.74641 28348 ft 393 kts 241°
2026-05-06 20:49 41.35229 7.71421 28746 ft 395 kts 240°
2026-05-06 20:49 41.33927 7.68182 29135 ft 398 kts 240°
2026-05-06 20:49 41.32618 7.64931 29513 ft 400 kts 240°
2026-05-06 20:50 41.31302 7.61664 29888 ft 402 kts 240°
2026-05-06 20:50 41.29977 7.58374 30208 ft 404 kts 241°
2026-05-06 20:50 41.28647 7.55070 30513 ft 406 kts 241°
2026-05-06 20:50 41.27309 7.51756 30856 ft 407 kts 241°
2026-05-06 20:51 41.25974 7.48453 31330 ft 405 kts 241°
2026-05-06 20:51 41.24645 7.45161 31778 ft 403 kts 241°
2026-05-06 20:51 41.23320 7.41890 32222 ft 402 kts 241°
2026-05-06 20:51 41.21995 7.38632 32664 ft 400 kts 241°
2026-05-06 20:52 41.20675 7.35384 33108 ft 399 kts 241°
2026-05-06 20:52 41.19361 7.32147 33558 ft 398 kts 241°
2026-05-06 20:52 41.18051 7.28918 33996 ft 396 kts 241°
2026-05-06 20:52 41.16746 7.25701 34378 ft 395 kts 241°
2026-05-06 20:53 41.15441 7.22493 34747 ft 395 kts 241°
2026-05-06 20:53 41.14136 7.19295 35102 ft 394 kts 241°
2026-05-06 20:53 41.12829 7.16100 35450 ft 394 kts 241°
2026-05-06 20:53 41.11519 7.12912 35768 ft 394 kts 241°
2026-05-06 20:54 41.10208 7.09724 36085 ft 394 kts 241°
2026-05-06 20:54 41.08898 7.06540 36416 ft 393 kts 241°
2026-05-06 20:54 41.07591 7.03358 36736 ft 393 kts 241°
2026-05-06 20:54 41.06286 7.00174 36924 ft 394 kts 241°
2026-05-06 20:55 41.04980 6.96984 36951 ft 394 kts 241°
2026-05-06 20:55 41.02353 6.90606 36954 ft 394 kts 241°
2026-05-06 20:56 40.99722 6.84229 36979 ft 394 kts 241°
2026-05-06 20:56 40.97089 6.77875 36954 ft 393 kts 241°
2026-05-06 20:57 40.94452 6.71533 36954 ft 393 kts 241°
2026-05-06 20:57 40.91811 6.65203 36928 ft 394 kts 241°
2026-05-06 20:58 40.89168 6.58860 36933 ft 394 kts 241°
2026-05-06 20:58 40.86541 6.52559 36939 ft 394 kts 241°
2026-05-06 20:59 40.83892 6.46212 36976 ft 394 kts 242°
2026-05-06 20:59 40.81241 6.39876 36973 ft 394 kts 241°
2026-05-06 21:00 40.78587 6.33554 36970 ft 394 kts 241°
2026-05-06 21:00 40.75929 6.27243 36966 ft 393 kts 241°
2026-05-06 21:01 40.73276 6.20934 36932 ft 393 kts 241°
2026-05-06 21:01 40.70610 6.14635 36936 ft 394 kts 241°
2026-05-06 21:02 40.67938 6.08338 36968 ft 394 kts 241°
2026-05-06 21:02 40.65264 6.02044 36969 ft 394 kts 241°
2026-05-06 21:03 40.62593 5.95757 36968 ft 393 kts 241°
2026-05-06 21:03 40.59924 5.89478 36968 ft 393 kts 241°
2026-05-06 21:04 40.57266 5.83255 36966 ft 393 kts 241°
2026-05-06 21:04 40.54585 5.76996 36966 ft 393 kts 241°
2026-05-06 21:05 40.51901 5.70745 36982 ft 393 kts 241°
2026-05-06 21:05 40.49216 5.64496 36979 ft 392 kts 241°
2026-05-06 21:06 40.46535 5.58261 36973 ft 392 kts 241°
2026-05-06 21:06 40.43847 5.52036 36964 ft 392 kts 241°
2026-05-06 21:07 40.41595 5.46823 36964 ft 392 kts 241°
2026-05-06 21:07 40.38903 5.40611 36966 ft 392 kts 241°
2026-05-06 21:08 40.36206 5.34402 36963 ft 392 kts 241°
2026-05-06 21:08 40.33513 5.28200 36957 ft 391 kts 241°
2026-05-06 21:09 40.30833 5.22042 36959 ft 391 kts 241°
2026-05-06 21:09 40.28134 5.15852 36952 ft 391 kts 241°
2026-05-06 21:10 40.25425 5.09672 36953 ft 391 kts 241°
2026-05-06 21:10 40.22714 5.03496 36955 ft 391 kts 241°
2026-05-06 21:11 40.20007 4.97322 36957 ft 391 kts 241°
2026-05-06 21:11 40.17293 4.91150 36965 ft 391 kts 241°
2026-05-06 21:12 40.14578 4.84992 36932 ft 391 kts 241°
2026-05-06 21:12 40.11854 4.78844 36951 ft 391 kts 241°
2026-05-06 21:13 40.09130 4.72701 36952 ft 391 kts 241°
2026-05-06 21:13 40.06404 4.66564 36952 ft 391 kts 241°
2026-05-06 21:14 40.03685 4.60416 36951 ft 391 kts 241°
2026-05-06 21:14 40.00964 4.54275 36978 ft 391 kts 241°
2026-05-06 21:15 39.98234 4.48147 36971 ft 391 kts 241°
2026-05-06 21:15 39.95501 4.42022 36973 ft 391 kts 241°
2026-05-06 21:16 39.92762 4.35910 36954 ft 390 kts 241°
2026-05-06 21:16 39.90041 4.29843 36970 ft 390 kts 241°
2026-05-06 21:17 39.87304 4.23737 36972 ft 390 kts 242°
2026-05-06 21:17 39.85430 4.17141 36994 ft 390 kts 254°
2026-05-06 21:18 39.84015 4.10335 36990 ft 390 kts 254°
2026-05-06 21:18 39.82578 4.03544 36980 ft 389 kts 253°
2026-05-06 21:19 39.81138 3.96754 36961 ft 389 kts 253°
2026-05-06 21:19 39.79707 3.89966 36962 ft 389 kts 254°
2026-05-06 21:20 39.78281 3.83179 36959 ft 389 kts 253°
2026-05-06 21:20 39.76841 3.76399 36953 ft 389 kts 253°
2026-05-06 21:21 39.75392 3.69618 36941 ft 389 kts 253°
2026-05-06 21:21 39.73938 3.62837 36926 ft 389 kts 253°
2026-05-06 21:22 39.72486 3.56061 36940 ft 389 kts 253°
2026-05-06 21:22 39.71027 3.49286 36937 ft 390 kts 253°
2026-05-06 21:23 39.69550 3.42521 36941 ft 389 kts 252°
2026-05-06 21:23 39.67773 3.35878 36947 ft 389 kts 249°
2026-05-06 21:24 39.65835 3.29322 36950 ft 389 kts 249°
2026-05-06 21:24 39.63917 3.22756 36947 ft 389 kts 249°
2026-05-06 21:25 39.62042 3.16167 36949 ft 389 kts 250°
2026-05-06 21:25 39.60174 3.09578 36945 ft 389 kts 250°
2026-05-06 21:26 39.58304 3.02993 36959 ft 389 kts 249°
2026-05-06 21:26 39.56436 2.96457 36950 ft 390 kts 249°
2026-05-06 21:27 39.54546 2.89875 36936 ft 390 kts 249°
2026-05-06 21:27 39.52655 2.83295 36937 ft 390 kts 249°
2026-05-06 21:28 39.50762 2.76714 36942 ft 390 kts 249°
2026-05-06 21:28 39.48863 2.70142 36942 ft 390 kts 249°
2026-05-06 21:29 39.46961 2.63573 36971 ft 390 kts 249°
2026-05-06 21:29 39.45061 2.57014 36965 ft 389 kts 249°
2026-05-06 21:30 39.43157 2.50465 36961 ft 389 kts 249°
2026-05-06 21:30 39.41247 2.43934 36958 ft 388 kts 249°
2026-05-06 21:31 39.39335 2.37406 36953 ft 388 kts 249°
2026-05-06 21:31 39.37423 2.30880 36947 ft 388 kts 249°
2026-05-06 21:32 39.35523 2.24399 36949 ft 388 kts 249°
2026-05-06 21:32 39.32642 2.14616 36913 ft 388 kts 249°
2026-05-06 21:33 39.30714 2.08102 36919 ft 389 kts 249°
2026-05-06 21:33 39.28785 2.01583 36928 ft 389 kts 249°
2026-05-06 21:34 39.26844 1.95069 36928 ft 389 kts 249°
2026-05-06 21:34 39.24905 1.88554 36944 ft 389 kts 249°
2026-05-06 21:35 39.22955 1.82040 36931 ft 389 kts 249°
2026-05-06 21:35 39.21003 1.75532 36932 ft 389 kts 249°
2026-05-06 21:36 39.19051 1.69020 36935 ft 389 kts 249°
2026-05-06 21:36 39.17097 1.62509 36931 ft 389 kts 249°
2026-05-06 21:37 39.15136 1.56004 36939 ft 389 kts 248°
2026-05-06 21:37 39.13172 1.49505 36948 ft 389 kts 249°
2026-05-06 21:38 39.11204 1.43006 36916 ft 389 kts 248°
2026-05-06 21:38 39.09230 1.36512 36934 ft 389 kts 248°
2026-05-06 21:39 39.07270 1.30064 36934 ft 389 kts 248°
2026-05-06 21:39 39.05292 1.23578 36938 ft 389 kts 248°
2026-05-06 21:40 39.03303 1.17096 36939 ft 389 kts 248°
2026-05-06 21:40 39.01314 1.10617 36944 ft 390 kts 248°
2026-05-06 21:41 38.99321 1.04139 36938 ft 390 kts 248°
2026-05-06 21:41 38.97317 0.97665 36925 ft 390 kts 248°
2026-05-06 21:42 38.95318 0.91184 36927 ft 390 kts 248°
2026-05-06 21:42 38.93324 0.84709 36930 ft 390 kts 248°
2026-05-06 21:43 38.91319 0.78237 36933 ft 390 kts 248°
2026-05-06 21:43 38.89309 0.71773 36935 ft 390 kts 248°
2026-05-06 21:44 38.87295 0.65307 36908 ft 390 kts 248°
2026-05-06 21:44 38.85280 0.58846 36928 ft 390 kts 248°
2026-05-06 21:45 38.83271 0.52431 36929 ft 390 kts 248°
2026-05-06 21:45 38.80891 0.46201 36927 ft 390 kts 237°
2026-05-06 21:46 38.77883 0.40406 36925 ft 390 kts 238°
2026-05-06 21:46 38.74883 0.34606 36932 ft 391 kts 238°
2026-05-06 21:47 38.71884 0.28804 36930 ft 391 kts 238°
2026-05-06 21:47 38.68886 0.23005 36931 ft 391 kts 238°
2026-05-06 21:48 38.65876 0.17217 36932 ft 391 kts 238°
2026-05-06 21:48 38.62858 0.11437 36914 ft 391 kts 237°
2026-05-06 21:49 38.59844 0.05657 36919 ft 390 kts 238°
2026-05-06 21:49 38.56832 -0.00117 36931 ft 390 kts 237°
2026-05-06 21:50 38.53834 -0.05841 36945 ft 390 kts 237°
2026-05-06 21:50 38.50817 -0.11599 36943 ft 390 kts 237°
2026-05-06 21:51 38.47800 -0.17350 36940 ft 390 kts 237°
2026-05-06 21:51 38.44781 -0.23099 36943 ft 390 kts 237°
2026-05-06 21:52 38.41756 -0.28835 36944 ft 390 kts 237°
2026-05-06 21:52 38.38727 -0.34562 36948 ft 390 kts 237°
2026-05-06 21:53 38.35696 -0.40290 36949 ft 390 kts 237°
2026-05-06 21:53 38.32665 -0.46005 36950 ft 390 kts 237°
2026-05-06 21:54 38.29629 -0.51719 36948 ft 390 kts 237°
2026-05-06 21:54 38.25961 -0.56792 36946 ft 395 kts 219°
2026-05-06 21:55 38.20994 -0.59937 36938 ft 403 kts 206°
2026-05-06 21:55 38.15760 -0.62524 36918 ft 403 kts 207°
2026-05-06 21:56 38.10571 -0.65107 36927 ft 403 kts 207°
2026-05-06 21:56 38.05350 -0.67711 36930 ft 403 kts 207°
2026-05-06 21:57 38.00128 -0.70315 36931 ft 403 kts 207°
2026-05-06 21:57 37.95754 -0.72487 36919 ft 403 kts 207°
2026-05-06 21:58 37.89681 -0.75486 36908 ft 403 kts 207°
2026-05-06 21:58 37.85306 -0.77644 36924 ft 403 kts 207°
2026-05-06 21:59 37.80142 -0.80338 36922 ft 398 kts 213°
2026-05-06 21:59 37.75867 -0.84578 36920 ft 389 kts 231°
2026-05-06 22:00 37.72468 -0.89871 36918 ft 388 kts 233°
2026-05-06 22:00 37.69075 -0.95164 36917 ft 387 kts 232°
2026-05-06 22:01 37.65679 -1.00441 36930 ft 387 kts 232°
2026-05-06 22:01 37.62305 -1.05673 36932 ft 387 kts 232°
2026-05-06 22:02 37.58907 -1.10932 36930 ft 387 kts 232°
2026-05-06 22:02 37.55508 -1.16190 36948 ft 387 kts 232°
2026-05-06 22:03 37.52115 -1.21439 36936 ft 386 kts 232°
2026-05-06 22:03 37.48716 -1.26685 36929 ft 386 kts 232°
2026-05-06 22:04 37.45317 -1.31924 36906 ft 386 kts 232°
2026-05-06 22:04 37.41916 -1.37146 36912 ft 386 kts 232°
2026-05-06 22:05 37.38518 -1.42364 36919 ft 385 kts 232°
2026-05-06 22:05 37.35128 -1.47579 36921 ft 385 kts 232°
2026-05-06 22:06 37.31730 -1.52784 36930 ft 385 kts 232°
2026-05-06 22:06 37.28324 -1.57977 36921 ft 385 kts 232°
2026-05-06 22:07 37.24916 -1.63171 36916 ft 385 kts 232°
2026-05-06 22:07 37.21509 -1.68368 36889 ft 385 kts 232°
2026-05-06 22:08 37.18101 -1.73550 36907 ft 385 kts 232°
2026-05-06 22:08 37.14718 -1.78689 36912 ft 384 kts 232°
2026-05-06 22:09 37.11316 -1.83850 36915 ft 384 kts 232°
2026-05-06 22:09 37.07911 -1.89003 36918 ft 384 kts 232°
2026-05-06 22:10 37.04497 -1.94142 36927 ft 384 kts 232°
2026-05-06 22:10 37.01076 -1.99295 36916 ft 384 kts 232°
2026-05-06 22:11 36.97663 -2.04439 36913 ft 384 kts 232°
2026-05-06 22:11 36.94246 -2.09570 36904 ft 384 kts 232°
2026-05-06 22:12 36.90829 -2.14693 36912 ft 383 kts 232°
2026-05-06 22:12 36.87411 -2.19808 36917 ft 383 kts 232°
2026-05-06 22:13 36.84014 -2.24877 36919 ft 383 kts 230°
2026-05-06 22:13 36.79997 -2.29284 36932 ft 386 kts 221°
2026-05-06 22:14 36.75813 -2.33475 36922 ft 386 kts 222°
2026-05-06 22:14 36.71626 -2.37674 36886 ft 386 kts 222°
2026-05-06 22:15 36.67449 -2.41867 36914 ft 385 kts 222°
2026-05-06 22:15 36.63284 -2.46052 36916 ft 384 kts 222°
2026-05-06 22:16 36.59120 -2.50221 36912 ft 384 kts 222°
2026-05-06 22:16 36.54958 -2.54374 36903 ft 383 kts 222°
2026-05-06 22:17 36.50794 -2.58522 36899 ft 383 kts 222°
2026-05-06 22:17 36.46628 -2.62656 36892 ft 383 kts 222°
2026-05-06 22:18 36.42432 -2.66727 36898 ft 383 kts 221°
2026-05-06 22:18 36.38235 -2.70724 36902 ft 383 kts 221°
2026-05-06 22:19 36.34015 -2.74755 36901 ft 383 kts 221°
2026-05-06 22:19 36.29798 -2.78789 36895 ft 383 kts 221°
2026-05-06 22:20 36.25577 -2.82814 36893 ft 383 kts 221°
2026-05-06 22:20 36.21354 -2.86837 36884 ft 383 kts 221°
2026-05-06 22:21 36.17156 -2.90868 36893 ft 381 kts 221°
2026-05-06 22:21 36.12995 -2.94922 36902 ft 380 kts 222°
2026-05-06 22:22 36.08842 -2.98973 36906 ft 380 kts 222°
2026-05-06 22:22 36.04687 -3.02999 36907 ft 379 kts 221°
2026-05-06 22:23 36.00534 -3.07016 36916 ft 379 kts 221°
2026-05-06 22:23 35.96368 -3.11036 36900 ft 380 kts 221°
2026-05-06 22:24 35.92222 -3.15033 36891 ft 381 kts 221°
2026-05-06 22:24 35.88039 -3.19049 36896 ft 381 kts 221°
2026-05-06 22:25 35.83854 -3.23069 36895 ft 382 kts 221°
2026-05-06 22:25 35.79656 -3.27072 36898 ft 382 kts 221°
2026-05-06 22:26 35.75426 -3.31040 36898 ft 382 kts 221°
2026-05-06 22:26 35.71192 -3.34995 36899 ft 382 kts 221°
2026-05-06 22:27 35.66973 -3.38954 36898 ft 381 kts 221°
2026-05-06 22:27 35.62771 -3.42898 36915 ft 380 kts 221°
2026-05-06 22:28 35.58574 -3.46836 36915 ft 380 kts 221°
2026-05-06 22:28 35.54369 -3.50766 36905 ft 380 kts 221°
2026-05-06 22:29 35.50157 -3.54693 36902 ft 380 kts 221°
2026-05-06 22:29 35.45944 -3.58623 36909 ft 380 kts 221°
2026-05-06 22:30 35.41726 -3.62541 36898 ft 379 kts 221°
2026-05-06 22:30 35.37528 -3.66449 36916 ft 378 kts 221°
2026-05-06 22:31 35.33366 -3.70314 36921 ft 378 kts 221°
2026-05-06 22:31 35.29177 -3.74194 36922 ft 377 kts 221°
2026-05-06 22:32 35.24991 -3.78067 36927 ft 377 kts 221°
2026-05-06 22:32 35.20807 -3.81933 36934 ft 377 kts 221°
2026-05-06 22:33 35.16632 -3.85810 36909 ft 376 kts 222°
2026-05-06 22:33 35.12514 -3.89748 36925 ft 375 kts 222°
2026-05-06 22:34 35.08412 -3.93681 36930 ft 375 kts 222°
2026-05-06 22:34 35.04303 -3.97600 36937 ft 374 kts 222°
2026-05-06 22:35 35.00199 -4.01502 36937 ft 374 kts 222°
2026-05-06 22:35 34.96094 -4.05391 36938 ft 374 kts 222°
2026-05-06 22:36 34.91989 -4.09270 36893 ft 374 kts 222°
2026-05-06 22:36 34.87897 -4.13135 36937 ft 371 kts 222°
2026-05-06 22:37 34.83835 -4.16974 36960 ft 369 kts 222°
2026-05-06 22:37 34.79789 -4.20791 36956 ft 367 kts 222°
2026-05-06 22:38 34.75755 -4.24586 36950 ft 366 kts 222°
2026-05-06 22:38 34.71724 -4.28372 36942 ft 366 kts 222°
2026-05-06 22:39 34.67705 -4.32151 36936 ft 365 kts 222°
2026-05-06 22:39 34.63686 -4.35928 36926 ft 364 kts 223°
2026-05-06 22:40 34.59711 -4.39653 36944 ft 363 kts 222°
2026-05-06 22:40 34.55725 -4.43378 36928 ft 361 kts 223°
2026-05-06 22:41 34.49759 -4.48962 36937 ft 361 kts 223°
2026-05-06 22:42 34.45780 -4.52673 36938 ft 360 kts 223°
2026-05-06 22:42 34.41811 -4.56372 36942 ft 360 kts 223°
2026-05-06 22:43 34.37839 -4.60062 36918 ft 360 kts 223°
2026-05-06 22:43 34.33868 -4.63726 36939 ft 358 kts 222°
2026-05-06 22:44 34.29911 -4.67358 36943 ft 356 kts 222°
2026-05-06 22:44 34.25992 -4.70954 36945 ft 356 kts 222°
2026-05-06 22:45 34.22054 -4.74561 36945 ft 355 kts 223°
2026-05-06 22:45 34.18124 -4.78168 36947 ft 355 kts 222°
2026-05-06 22:46 34.14201 -4.81770 36948 ft 354 kts 222°
2026-05-06 22:46 34.10281 -4.85363 36928 ft 354 kts 222°
2026-05-06 22:47 34.06362 -4.88939 36944 ft 353 kts 222°
2026-05-06 22:47 34.02453 -4.92507 36946 ft 352 kts 222°
2026-05-06 22:48 33.98549 -4.96069 36953 ft 352 kts 222°
2026-05-06 22:48 33.94636 -4.99627 36945 ft 353 kts 222°
2026-05-06 22:49 33.91626 -5.02877 36937 ft 348 kts 232°
2026-05-06 22:49 33.88467 -5.07295 36940 ft 348 kts 231°
2026-05-06 22:50 33.85299 -5.11710 36940 ft 349 kts 231°
2026-05-06 22:50 33.82132 -5.16113 36930 ft 348 kts 231°
2026-05-06 22:51 33.78964 -5.20500 36947 ft 347 kts 231°
2026-05-06 22:51 33.75801 -5.24878 36937 ft 347 kts 231°
2026-05-06 22:52 33.72640 -5.29249 36959 ft 346 kts 231°
2026-05-06 22:52 33.69481 -5.33612 36963 ft 346 kts 231°
2026-05-06 22:53 33.66314 -5.37991 36949 ft 348 kts 231°
2026-05-06 22:53 33.63134 -5.42377 36944 ft 349 kts 231°
2026-05-06 22:54 33.59944 -5.46767 36939 ft 350 kts 231°
2026-05-06 22:54 33.56743 -5.51163 36932 ft 350 kts 231°
2026-05-06 22:55 33.53547 -5.55548 36935 ft 349 kts 231°
2026-05-06 22:55 33.50359 -5.59925 36949 ft 348 kts 231°
2026-05-06 22:56 33.47172 -5.64289 36939 ft 348 kts 231°
2026-05-06 22:56 33.43988 -5.68648 36935 ft 347 kts 231°
2026-05-06 22:57 33.40804 -5.73003 36954 ft 348 kts 231°
2026-05-06 22:57 33.37608 -5.77374 36921 ft 350 kts 231°
2026-05-06 22:58 33.34389 -5.81759 36916 ft 351 kts 230°
2026-05-06 22:58 33.31175 -5.86122 36915 ft 352 kts 230°
2026-05-06 22:59 33.27934 -5.90509 36919 ft 352 kts 230°
2026-05-06 22:59 33.24690 -5.94899 36911 ft 352 kts 230°
2026-05-06 23:00 33.21447 -5.99296 36916 ft 353 kts 230°
2026-05-06 23:00 33.18198 -6.03695 36908 ft 353 kts 230°
2026-05-06 23:01 33.14942 -6.08093 36917 ft 353 kts 230°
2026-05-06 23:01 33.11681 -6.12487 36916 ft 355 kts 230°
2026-05-06 23:02 33.08399 -6.16892 36906 ft 356 kts 230°
2026-05-06 23:02 33.05110 -6.21310 36899 ft 356 kts 230°
2026-05-06 23:03 33.01822 -6.25733 36902 ft 357 kts 230°
2026-05-06 23:03 32.98550 -6.30117 36879 ft 355 kts 230°
2026-05-06 23:04 32.95263 -6.34508 36897 ft 355 kts 230°
2026-05-06 23:04 32.91981 -6.38891 36909 ft 354 kts 230°
2026-05-06 23:05 32.88714 -6.43279 36915 ft 354 kts 230°
2026-05-06 23:05 32.85448 -6.47662 36924 ft 354 kts 230°
2026-05-06 23:06 32.82172 -6.52053 36902 ft 355 kts 230°
2026-05-06 23:06 32.78878 -6.56448 36904 ft 356 kts 230°
2026-05-06 23:07 32.75579 -6.60846 36889 ft 357 kts 230°
2026-05-06 23:07 32.72279 -6.65253 36890 ft 357 kts 230°
2026-05-06 23:08 32.68975 -6.69652 36887 ft 356 kts 230°
2026-05-06 23:08 32.65678 -6.74034 36905 ft 355 kts 230°
2026-05-06 23:09 32.62388 -6.78407 36899 ft 355 kts 230°
2026-05-06 23:09 32.59102 -6.82773 36902 ft 355 kts 230°
2026-05-06 23:10 32.55809 -6.87133 36901 ft 355 kts 229°
2026-05-06 23:10 32.52503 -6.91504 36884 ft 357 kts 229°
2026-05-06 23:11 32.49189 -6.95891 36871 ft 358 kts 229°
2026-05-06 23:11 32.45869 -7.00284 36883 ft 358 kts 229°
2026-05-06 23:12 32.42532 -7.04677 36892 ft 359 kts 229°
2026-05-06 23:12 32.39209 -7.09063 36873 ft 357 kts 229°
2026-05-06 23:13 32.35912 -7.13409 36882 ft 357 kts 229°
2026-05-06 23:13 32.32587 -7.17770 36895 ft 357 kts 229°
2026-05-06 23:14 32.29268 -7.22131 36902 ft 357 kts 229°
2026-05-06 23:14 32.25938 -7.26507 36883 ft 359 kts 229°
2026-05-06 23:15 32.22590 -7.30897 36887 ft 360 kts 229°
2026-05-06 23:15 32.19235 -7.35305 36888 ft 361 kts 229°
2026-05-06 23:16 32.15866 -7.39714 36887 ft 362 kts 229°
2026-05-06 23:16 32.12489 -7.44129 36849 ft 362 kts 229°
2026-05-06 23:17 32.09122 -7.48528 36903 ft 361 kts 229°
2026-05-06 23:17 32.05756 -7.52919 36907 ft 361 kts 229°
2026-05-06 23:18 32.02392 -7.57303 36909 ft 360 kts 229°
2026-05-06 23:18 31.99023 -7.61675 36919 ft 361 kts 229°
2026-05-06 23:19 31.95659 -7.66039 36893 ft 363 kts 229°
2026-05-06 23:19 31.92254 -7.70452 36888 ft 365 kts 229°
2026-05-06 23:20 31.88833 -7.74873 36886 ft 366 kts 229°
2026-05-06 23:20 31.85404 -7.79300 36886 ft 366 kts 229°
2026-05-06 23:21 31.81973 -7.83725 36881 ft 365 kts 229°
2026-05-06 23:21 31.78553 -7.88126 36898 ft 364 kts 229°
2026-05-06 23:22 31.75127 -7.92528 36905 ft 364 kts 229°
2026-05-06 23:22 31.71735 -7.96882 36905 ft 363 kts 229°
2026-05-06 23:23 31.68321 -8.01258 36906 ft 363 kts 229°
2026-05-06 23:23 31.64909 -8.05630 36906 ft 363 kts 229°
2026-05-06 23:24 31.61492 -8.09997 36886 ft 363 kts 227°
2026-05-06 23:24 31.57696 -8.13924 36886 ft 364 kts 223°
2026-05-06 23:25 31.53853 -8.17798 36890 ft 364 kts 223°
2026-05-06 23:25 31.50010 -8.21665 36889 ft 363 kts 223°
2026-05-06 23:26 31.46180 -8.25524 36908 ft 363 kts 223°
2026-05-06 23:26 31.42354 -8.29374 36918 ft 362 kts 223°
2026-05-06 23:27 31.38526 -8.33210 36929 ft 362 kts 223°
2026-05-06 23:27 31.34696 -8.37048 36936 ft 363 kts 223°
2026-05-06 23:28 31.30858 -8.40902 36925 ft 364 kts 223°
2026-05-06 23:28 31.27011 -8.44761 36924 ft 365 kts 223°
2026-05-06 23:29 31.23153 -8.48619 36899 ft 365 kts 223°
2026-05-06 23:29 31.19287 -8.52491 36926 ft 367 kts 223°
2026-05-06 23:30 31.15422 -8.56375 36943 ft 366 kts 223°
2026-05-06 23:30 31.11560 -8.60255 36948 ft 366 kts 223°
2026-05-06 23:31 31.07710 -8.64128 36941 ft 365 kts 223°
2026-05-06 23:31 31.03881 -8.67969 36937 ft 365 kts 223°
2026-05-06 23:32 31.00027 -8.71821 36942 ft 365 kts 223°
2026-05-06 23:32 30.96165 -8.75675 36912 ft 366 kts 223°
2026-05-06 23:33 30.92295 -8.79541 36895 ft 367 kts 222°
2026-05-06 23:33 30.88415 -8.83405 36895 ft 367 kts 222°
2026-05-06 23:34 30.84514 -8.87228 36886 ft 366 kts 221°
2026-05-06 23:34 30.80601 -8.91035 36890 ft 368 kts 222°
2026-05-06 23:35 30.76700 -8.94844 36894 ft 369 kts 221°
2026-05-06 23:35 30.72772 -8.98676 36892 ft 368 kts 222°
2026-05-06 23:36 30.68856 -9.02505 36892 ft 368 kts 222°
2026-05-06 23:36 30.64940 -9.06326 36896 ft 368 kts 222°
2026-05-06 23:37 30.61030 -9.10142 36882 ft 367 kts 222°
2026-05-06 23:37 30.57128 -9.13971 36874 ft 368 kts 222°
2026-05-06 23:38 30.53214 -9.17805 36873 ft 368 kts 222°
2026-05-06 23:38 30.49296 -9.21647 36875 ft 369 kts 222°
2026-05-06 23:39 30.46036 -9.24835 36872 ft 369 kts 222°
2026-05-06 23:39 30.42105 -9.28672 36873 ft 369 kts 222°
2026-05-06 23:40 30.38176 -9.32511 36873 ft 370 kts 222°
2026-05-06 23:40 30.34244 -9.36350 36871 ft 370 kts 223°
2026-05-06 23:41 30.31133 -9.41032 36878 ft 370 kts 242°
2026-05-06 23:41 30.29001 -9.46468 36893 ft 371 kts 243°
2026-05-06 23:42 30.26841 -9.51918 36871 ft 374 kts 243°
2026-05-06 23:42 30.24657 -9.57404 36870 ft 377 kts 243°
2026-05-06 23:43 30.22467 -9.62921 36879 ft 378 kts 243°
2026-05-06 23:43 30.20268 -9.68458 36886 ft 379 kts 243°
2026-05-06 23:44 30.18062 -9.74007 36905 ft 380 kts 243°
2026-05-06 23:44 30.15856 -9.79565 36909 ft 381 kts 243°
2026-05-06 23:45 30.13642 -9.85123 36927 ft 382 kts 244°
2026-05-06 23:45 30.11430 -9.90673 36917 ft 384 kts 244°
2026-05-06 23:46 30.09186 -9.96296 36919 ft 386 kts 244°
2026-05-06 23:46 30.06927 -10.01944 36938 ft 388 kts 244°
2026-05-06 23:47 30.04658 -10.07600 36945 ft 389 kts 244°
2026-05-06 23:47 30.02379 -10.13264 36950 ft 389 kts 244°
2026-05-06 23:48 30.00095 -10.18934 36933 ft 390 kts 243°
2026-05-06 23:48 29.97810 -10.24610 36944 ft 391 kts 244°
2026-05-06 23:49 29.95507 -10.30308 36951 ft 393 kts 244°
2026-05-06 23:49 29.93193 -10.36030 36953 ft 394 kts 244°
2026-05-06 23:50 29.90875 -10.41769 36954 ft 395 kts 244°
2026-05-06 23:50 29.87382 -10.50394 36962 ft 396 kts 244°
2026-05-06 23:51 29.85042 -10.56146 36962 ft 397 kts 244°
2026-05-06 23:51 29.82695 -10.61913 36953 ft 399 kts 245°
2026-05-06 23:52 29.80329 -10.67716 36948 ft 402 kts 245°
2026-05-06 23:52 29.77945 -10.73559 36961 ft 404 kts 245°
2026-05-06 23:53 29.75564 -10.79380 36970 ft 405 kts 245°
2026-05-06 23:53 29.73161 -10.85253 36969 ft 406 kts 245°
2026-05-06 23:54 29.70750 -10.91136 36983 ft 407 kts 245°
2026-05-06 23:54 29.68337 -10.97025 36972 ft 408 kts 246°
2026-05-06 23:55 29.65905 -11.02938 36978 ft 410 kts 245°
2026-05-06 23:55 29.63452 -11.08878 36969 ft 412 kts 245°
2026-05-06 23:56 29.60997 -11.14827 36980 ft 412 kts 245°
2026-05-06 23:56 29.58537 -11.20776 36987 ft 412 kts 245°
2026-05-06 23:57 29.56074 -11.26720 36992 ft 412 kts 245°
2026-05-06 23:57 29.53608 -11.32666 36986 ft 413 kts 246°
2026-05-06 23:58 29.51135 -11.38631 36981 ft 415 kts 246°
2026-05-06 23:58 29.48651 -11.44620 36983 ft 417 kts 246°
2026-05-06 23:59 29.46148 -11.50631 36985 ft 418 kts 246°
2026-05-06 23:59 29.43654 -11.56608 36990 ft 419 kts 246°
2026-05-07 00:00 29.41142 -11.62637 36997 ft 419 kts 246°
2026-05-07 00:00 29.38605 -11.68678 36936 ft 425 kts 245°
2026-05-07 00:01 29.36066 -11.74736 37017 ft 420 kts 245°
2026-05-07 00:01 29.33552 -11.80736 37006 ft 416 kts 245°
2026-05-07 00:02 29.31040 -11.86713 37011 ft 416 kts 245°
2026-05-07 00:02 29.28527 -11.92682 37000 ft 415 kts 245°
2026-05-07 00:03 29.26026 -11.98625 37007 ft 413 kts 245°
2026-05-07 00:03 29.23521 -12.04547 37007 ft 413 kts 245°
2026-05-07 00:04 29.21011 -12.10476 36984 ft 415 kts 245°
2026-05-07 00:04 29.18509 -12.16392 36992 ft 416 kts 245°
2026-05-07 00:05 29.15978 -12.22363 36995 ft 418 kts 245°
2026-05-07 00:05 29.13435 -12.28345 36998 ft 418 kts 245°
2026-05-07 00:06 29.10889 -12.34331 37001 ft 419 kts 245°
2026-05-07 00:06 29.08332 -12.40314 37005 ft 419 kts 245°
2026-05-07 00:07 29.05770 -12.46316 36983 ft 422 kts 246°
2026-05-07 00:07 29.03186 -12.52359 36985 ft 424 kts 246°
2026-05-07 00:08 29.00583 -12.58427 36989 ft 426 kts 246°
2026-05-07 00:08 28.97971 -12.64507 36996 ft 427 kts 246°
2026-05-07 00:09 28.95355 -12.70603 36996 ft 428 kts 246°
2026-05-07 00:09 28.92735 -12.76700 36984 ft 428 kts 246°
2026-05-07 00:10 28.90102 -12.82794 36991 ft 428 kts 246°
2026-05-07 00:10 28.87402 -12.88867 37000 ft 429 kts 245°
2026-05-07 00:11 28.84679 -12.94879 37007 ft 430 kts 245°
2026-05-07 00:11 28.81944 -13.00939 37012 ft 430 kts 245°
2026-05-07 00:12 28.79222 -13.07007 37018 ft 430 kts 245°
2026-05-07 00:12 28.76487 -13.13068 37018 ft 430 kts 245°
2026-05-07 00:13 28.73742 -13.19138 37006 ft 431 kts 246°
2026-05-07 00:13 28.70994 -13.25218 37008 ft 432 kts 246°
2026-05-07 00:14 28.68231 -13.31307 37007 ft 433 kts 246°
2026-05-07 00:14 28.65467 -13.37403 37012 ft 433 kts 246°
2026-05-07 00:15 28.62699 -13.43505 37021 ft 434 kts 246°
2026-05-07 00:15 28.59920 -13.49599 37007 ft 434 kts 246°
2026-05-07 00:16 28.57143 -13.55696 37008 ft 434 kts 246°
2026-05-07 00:16 28.54362 -13.61797 37003 ft 435 kts 246°
2026-05-07 00:17 28.51569 -13.67894 37013 ft 435 kts 246°
2026-05-07 00:17 28.48776 -13.73992 37016 ft 435 kts 246°
2026-05-07 00:18 28.45985 -13.80088 37019 ft 435 kts 246°
2026-05-07 00:18 28.42833 -13.85965 37000 ft 441 kts 234°
2026-05-07 00:19 28.38183 -13.90611 37005 ft 449 kts 221°
2026-05-07 00:19 28.33169 -13.94850 37009 ft 450 kts 221°
2026-05-07 00:20 28.28163 -13.99117 37011 ft 450 kts 221°
2026-05-07 00:20 28.23145 -14.03392 36669 ft 452 kts 221°
2026-05-07 00:21 28.20660 -14.05499 36405 ft 452 kts 221°
2026-05-07 00:21 28.18105 -14.07662 36155 ft 453 kts 221°
2026-05-07 00:21 28.15628 -14.09791 35792 ft 452 kts 223°
2026-05-07 00:21 28.13366 -14.12266 34801 ft 453 kts 233°
2026-05-07 00:22 28.11519 -14.15157 33807 ft 454 kts 243°
2026-05-07 00:22 28.10120 -14.18357 32741 ft 453 kts 252°
2026-05-07 00:22 28.09175 -14.21753 31627 ft 453 kts 260°
2026-05-07 00:22 28.08434 -14.25241 30483 ft 458 kts 261°
2026-05-07 00:23 28.07689 -14.28754 29530 ft 457 kts 261°
2026-05-07 00:23 28.06952 -14.32208 28874 ft 447 kts 260°
2026-05-07 00:23 28.06224 -14.35599 28148 ft 440 kts 260°
2026-05-07 00:23 28.05511 -14.38932 27447 ft 433 kts 260°
2026-05-07 00:24 28.04808 -14.42222 26758 ft 427 kts 260°
2026-05-07 00:24 28.04117 -14.45465 26076 ft 422 kts 260°
2026-05-07 00:24 28.03430 -14.48674 25415 ft 417 kts 260°
2026-05-07 00:24 28.02749 -14.51844 24764 ft 412 kts 259°
2026-05-07 00:25 28.02076 -14.54983 24116 ft 408 kts 259°
2026-05-07 00:25 28.01411 -14.58089 23457 ft 404 kts 260°
2026-05-07 00:25 28.00725 -14.61161 22829 ft 401 kts 256°
2026-05-07 00:25 28.00087 -14.63116 22453 ft 400 kts 250°
2026-05-07 00:26 27.98200 -14.66743 21698 ft 401 kts 236°
2026-05-07 00:26 27.96351 -14.69100 21130 ft 400 kts 230°
2026-05-07 00:26 27.94431 -14.71361 20598 ft 397 kts 230°
2026-05-07 00:26 27.92525 -14.73611 20063 ft 394 kts 230°
2026-05-07 00:27 27.90640 -14.75842 19540 ft 391 kts 230°
2026-05-07 00:27 27.88765 -14.78058 19006 ft 388 kts 229°
2026-05-07 00:27 27.86902 -14.80256 18470 ft 386 kts 229°
2026-05-07 00:27 27.85056 -14.82434 17844 ft 383 kts 229°
2026-05-07 00:28 27.83228 -14.84591 17330 ft 378 kts 229°
2026-05-07 00:28 27.81421 -14.86725 16771 ft 374 kts 229°
2026-05-07 00:28 27.80231 -14.88127 16407 ft 371 kts 229°
2026-05-07 00:28 27.77896 -14.90870 16064 ft 357 kts 229°
2026-05-07 00:29 27.76206 -14.92850 15933 ft 344 kts 227°
2026-05-07 00:29 27.74581 -14.94759 15802 ft 331 kts 229°
2026-05-07 00:30 27.70564 -14.99478 15475 ft 295 kts 230°
2026-05-07 00:30 27.69286 -15.01236 15338 ft 277 kts 247°
2026-05-07 00:30 27.68916 -15.03246 15160 ft 263 kts 277°
2026-05-07 00:30 27.69543 -15.05137 14829 ft 260 kts 306°
2026-05-07 00:31 27.70760 -15.06653 14447 ft 261 kts 309°
2026-05-07 00:31 27.71802 -15.08314 14121 ft 258 kts 298°
2026-05-07 00:31 27.72510 -15.10164 13803 ft 256 kts 290°
2026-05-07 00:31 27.73132 -15.12043 13432 ft 255 kts 290°
2026-05-07 00:32 27.73744 -15.13924 13038 ft 255 kts 290°
2026-05-07 00:32 27.74346 -15.15795 12711 ft 252 kts 290°
2026-05-07 00:32 27.74941 -15.17649 12361 ft 250 kts 290°
2026-05-07 00:32 27.75530 -15.19492 11981 ft 249 kts 290°
2026-05-07 00:33 27.76124 -15.21348 11485 ft 253 kts 290°
2026-05-07 00:33 27.76654 -15.23239 10974 ft 252 kts 278°
2026-05-07 00:33 27.76355 -15.25151 10517 ft 252 kts 243°
2026-05-07 00:33 27.75147 -15.26577 10004 ft 257 kts 214°
2026-05-07 00:34 27.73610 -15.27615 9395 ft 258 kts 215°
2026-05-07 00:34 27.72152 -15.28781 8827 ft 255 kts 222°
2026-05-07 00:34 27.70837 -15.30114 8280 ft 254 kts 228°
2026-05-07 00:34 27.69681 -15.31598 7811 ft 249 kts 234°
2026-05-07 00:35 27.68695 -15.33192 7405 ft 246 kts 240°
2026-05-07 00:35 27.67870 -15.34874 7013 ft 244 kts 245°
2026-05-07 00:35 27.67200 -15.36630 6630 ft 243 kts 252°
2026-05-07 00:35 27.66697 -15.38426 6234 ft 244 kts 258°
2026-05-07 00:36 27.66348 -15.40293 5834 ft 243 kts 263°
2026-05-07 00:36 27.66167 -15.42184 5449 ft 242 kts 270°
2026-05-07 00:36 27.66157 -15.44070 5128 ft 238 kts 275°
2026-05-07 00:36 27.66303 -15.45862 5058 ft 223 kts 280°
2026-05-07 00:37 27.66700 -15.47487 4979 ft 208 kts 302°
2026-05-07 00:37 27.67656 -15.48610 4914 ft 195 kts 330°
2026-05-07 00:37 27.68908 -15.49066 4842 ft 189 kts 356°
2026-05-07 00:37 27.70205 -15.48819 4772 ft 192 kts 21°
2026-05-07 00:38 27.71445 -15.48227 4566 ft 196 kts 20°
2026-05-07 00:38 27.72723 -15.47659 4248 ft 198 kts 20°
2026-05-07 00:38 27.74016 -15.47094 3950 ft 199 kts 19°
2026-05-07 00:38 27.75306 -15.46532 3661 ft 199 kts 20°
2026-05-07 00:39 27.76599 -15.45969 3379 ft 200 kts 20°
2026-05-07 00:39 27.77895 -15.45401 3105 ft 199 kts 20°
2026-05-07 00:39 27.79158 -15.44848 3018 ft 189 kts 20°
2026-05-07 00:39 27.80361 -15.44319 3024 ft 185 kts 21°
2026-05-07 00:40 27.81560 -15.43792 3027 ft 185 kts 20°
2026-05-07 00:40 27.82739 -15.43273 3027 ft 184 kts 21°
2026-05-07 00:40 27.83929 -15.42749 3027 ft 183 kts 21°
2026-05-07 00:40 27.85136 -15.42180 2639 ft 197 kts 23°
2026-05-07 00:41 27.86429 -15.41491 1884 ft 211 kts 22°
2026-05-07 00:41 27.87825 -15.40941 1200 ft 209 kts 17°
2026-05-07 00:41 27.89168 -15.40421 766 ft 197 kts 21°
2026-05-07 00:41 27.90400 -15.39875 460 ft 182 kts 22°
2026-05-07 00:42 27.91522 -15.39383 228 ft 165 kts 21°
2026-05-07 00:42 27.92523 -15.38949 90 ft 138 kts 22°
2026-05-07 00:42 27.93321 -15.38598 59 ft 102 kts 21°
2026-05-07 00:42 27.93846 -15.38366 56 ft 62 kts 21°
2026-05-07 00:43 27.94198 -15.38208 53 ft 51 kts 22°
2026-05-07 00:43 27.94438 -15.38098 44 ft 15 kts 31°
2026-05-07 00:43 27.94452 -15.37995 37 ft 9 kts 116°
2026-05-07 00:43 27.94443 -15.37975 38 ft 5 kts 113°
2026-05-07 00:44 27.94411 -15.37893 34 ft 20 kts 114°
2026-05-07 00:44 27.94334 -15.37791 31 ft 16 kts 192°
2026-05-07 00:44 27.94222 -15.37840 32 ft 18 kts 201°
2026-05-07 00:44 27.94103 -15.37892 35 ft 19 kts 201°
2026-05-07 00:45 27.93982 -15.37945 41 ft 18 kts 202°
2026-05-07 00:45 27.93867 -15.37997 44 ft 19 kts 201°
2026-05-07 00:45 27.93738 -15.38054 43 ft 21 kts 201°
2026-05-07 00:45 27.93586 -15.38119 38 ft 25 kts 201°
2026-05-07 00:46 27.93413 -15.38195 38 ft 28 kts 202°
2026-05-07 00:46 27.93245 -15.38325 41 ft 29 kts 217°
2026-05-07 00:46 27.93087 -15.38471 46 ft 30 kts 226°
2026-05-07 00:46 27.92945 -15.38639 54 ft 29 kts 226°
2026-05-07 00:47 27.92814 -15.38794 62 ft 26 kts 226°
2026-05-07 00:47 27.92657 -15.38894 63 ft 26 kts 200°
2026-05-07 00:47 27.92484 -15.38971 67 ft 27 kts 201°
2026-05-07 00:47 27.92306 -15.39049 76 ft 28 kts 201°
2026-05-07 00:48 27.92125 -15.39130 86 ft 28 kts 201°
2026-05-07 00:48 27.91946 -15.39223 86 ft 24 kts 232°
2026-05-07 00:48 27.92040 -15.39302 92 ft 21 kts 358°
2026-05-07 00:48 27.92175 -15.39302 99 ft 19 kts 11°
2026-05-07 00:49 27.92295 -15.39251 100 ft 19 kts 21°
2026-05-07 00:49 27.92420 -15.39223 97 ft 16 kts 317°
2026-05-07 00:49 27.92475 -15.39316 99 ft 11 kts 322°
2026-05-07 00:49 27.92555 -15.39320 99 ft 11 kts 20°
2026-05-07 00:50 27.92598 -15.39336 99 ft 2 kts 292°
2026-05-07 00:50 27.92598 -15.39341 99 ft 0 kts 276°
2026-05-07 00:50 27.92599 -15.39345 99 ft 1 kts 284°
2026-05-07 00:50 27.92603 -15.39355 102 ft 1 kts 290°
2026-05-07 00:51 27.92607 -15.39368 101 ft 0 kts 291°